This is the latest recevied weather packets stored in our database for station/object VY2CRA-4. If no packets are shown the sender has not sent any weather packets the latest 10 day(s).
| Time | Temp. | Humidity | Pressure | Rain* | Wind** | Luminosity | Snow |
|---|---|---|---|---|---|---|---|
| 1777800279 | 11.67° C | 48% | 1007.6 hPa | 0 mm | - | - | - |
| 1777799078 | 11.67° C | 49% | 1007.7 hPa | 0 mm | - | - | - |
| 1777797876 | 11.67° C | 49% | 1007.9 hPa | 0 mm | - | - | - |
| 1777796676 | 11.67° C | 49% | 1008.3 hPa | 0 mm | - | - | - |
| 1777795475 | 11.11° C | 49% | 1008.7 hPa | 0 mm | - | - | - |
| 1777794274 | 11.11° C | 49% | 1008.8 hPa | 0 mm | - | - | - |
| 1777793073 | 11.11° C | 49% | 1009.1 hPa | 0 mm | - | - | - |
| 1777791872 | 11.11° C | 48% | 1009.1 hPa | 0 mm | - | - | - |
| 1777790671 | 11.11° C | 47% | 1009.4 hPa | 0 mm | - | - | - |
| 1777789470 | 11.11° C | 47% | 1009.5 hPa | 0 mm | - | - | - |
| 1777788269 | 11.11° C | 47% | 1009.6 hPa | 0 mm | - | - | - |
| 1777787068 | 11.11° C | 47% | 1009.8 hPa | 0 mm | - | - | - |
| 1777785867 | 11.67° C | 47% | 1009.9 hPa | 0 mm | - | - | - |
| 1777784667 | 11.11° C | 47% | 1010.4 hPa | 0 mm | - | - | - |
| 1777783465 | 11.11° C | 48% | 1010.5 hPa | 0 mm | - | - | - |
| 1777782265 | 10.56° C | 49% | 1010.7 hPa | 0 mm | - | - | - |
| 1777781064 | 10.56° C | 49% | 1010.9 hPa | 0 mm | - | - | - |
| 1777779863 | 10.56° C | 49% | 1010.9 hPa | 0 mm | - | - | - |
| 1777778662 | 11.11° C | 50% | 1011 hPa | 0 mm | - | - | - |
| 1777777461 | 11.11° C | 49% | 1011 hPa | 0 mm | - | - | - |
| 1777776260 | 11.11° C | 48% | 1011.1 hPa | 0 mm | - | - | - |
| 1777775059 | 11.67° C | 47% | 1011.2 hPa | 0 mm | - | - | - |
| 1777773858 | 11.67° C | 46% | 1011.1 hPa | 0 mm | - | - | - |
| 1777772657 | 12.22° C | 45% | 1011.2 hPa | 0 mm | - | - | - |
| 1777771456 | 12.78° C | 43% | 1011.4 hPa | 0 mm | - | - | - |
* Rain since midnight (hover to see other rain measurements)
** Current wind speed in m/s (hover to see current wind gust speed)